Regional Weather Roundup
Issued by NWS

Home | Current Version | Previous Version | Graphics & Text | Print | Product List | Glossary On
Versions: 1 2 3 4 5 6 7 8 9 10 11 12 13 14 15 16 17 18 19 20 21 22 23 24 25 26 27 28 29 30 31 32 33 34 35 36 37 38 39 40 41 42 43 44 45 46 47 48 49 50
000
ASUS45 KBOI 060410
RWRID
WEATHER ROUNDUP FOR IDAHO
NATIONAL WEATHER SERVICE BOISE ID
1000 PM MDT TUE MAY 05 2015

NOTE: "FAIR" INDICATES FEW OR NO CLOUDS BELOW 12000 FEET
WITH NO SIGNIFICANT WEATHER AND/OR OBSTRUCTIONS TO VISIBILITY

IDZ012-014-060500-
SOUTHWEST IDAHO


CITY           SKY/WX    TMP DP  RH WIND       PRES   REMARKS
BOISE          CLEAR     59  24  26 NW16      29.83R
CALDWELL       CLEAR     57  25  28 NW15      29.86R
MOUNTAIN HOME  CLEAR     57  20  24 W15       29.82R
$$

IDZ016-017-060500-
SOUTHCENTRAL IDAHO


CITY           SKY/WX    TMP DP  RH WIND       PRES   REMARKS
BURLEY         CLOUDY    56  25  30 SW15      29.80R
JEROME         CLEAR     56  20  24 SW14      29.82R
TWIN FALLS     PTCLDY    56  18  22 SW15      29.83R
$$

IDZ019>023-060500-
SOUTHEAST IDAHO


CITY           SKY/WX    TMP DP  RH WIND       PRES   REMARKS
IDAHO FALLS    CLOUDY    51  45  79 NE6       29.80R
POCATELLO      CLEAR     57  30  35 SW10      29.79S
REXBURG        CLOUDY    50  44  80 E6        29.81R
$$

IDZ006-010-011-018-031-032-060500-
CENTRAL IDAHO MOUNTAINS


CITY           SKY/WX    TMP DP  RH WIND       PRES   REMARKS
MCCALL         CLEAR     47  24  40 NW7       29.90R
HAILEY         PTCLDY    55  25  30 W7        29.83R
STANLEY          N/A     44  25  47 VRB3      29.90R
SALMON         CLOUDY    54  36  50 N13       29.83R
CHALLIS        CLEAR     54  37  52 N7        29.80R
$$

IDZ002-004-006-007-026-060500-
NORTHERN IDAHO


CITY           SKY/WX    TMP DP  RH WIND       PRES   REMARKS
LEWISTON       PTCLDY    58  27  30 CALM      29.95R
LOWELL           N/A     49  40  71 CALM      29.96R
COEUR D`ALENE  PTCLDY    48  25  40 S8        29.95R
MULLAN PASS    CLEAR     35  21  56 W7        29.95R WCI  29
$$


USA.gov is the U.S. government's official web portal to all federal, state and local government web resources and services.